Date String (YYYY-MM-DD hh:mm:ss) UTC,Instrument flags,absolute air pressure of the measurement (hPa),sample flow rate (lpm),inlet stack bypass flow (lpm),air temperature of the measurement (°C),ambient temperature measured by the external sensor (°C),aerosol sample conditioner tube jacket temperature (°C),OPC LED temperature (°C),internal box temperature (°C),relative humidity of the measurement (%),span deviation,mass concentration of particles derived from Lorenz-Mie calculation of OPC scattering (μg/m³),mass concentration of particles derived from Lorenz-Mie calculation of OPC scattering (μg/m³),mass concentration of particles derived from Lorenz-Mie calculation of OPC scattering (μg/m³)
DateTimeUTC,F1_M11,P_M11,Q1_M11,Q2_M11,T1_M11,T2_M11,T3_M11,T4_M11,T5_M11,U1_M11,ZSPAN_M11,X0_M11,X2_M11,X1_M11
2024-05-09 07:00:00,SystemResetWarning,0826.8,5.00,000.00,024.9,024.2,000.0,033.1,026.6,010.5,0000.0,0001.05,0000.49,0000.32
2024-05-09 07:01:00,SystemResetWarning,0826.8,5.00,000.00,024.9,024.2,000.0,033.1,026.6,010.4,0000.0,0000.97,0000.49,0000.32
2024-05-09 07:02:00,SystemResetWarning,0826.8,5.00,000.00,024.9,024.2,000.0,033.1,026.6,010.3,0000.0,0001.06,0000.51,0000.32
2024-05-09 07:03:00,SystemResetWarning,0826.8,4.99,000.00,024.9,024.2,000.0,033.1,026.6,010.3,0000.0,0001.12,0000.53,0000.33
2024-05-09 07:04:00,SystemResetWarning,0826.8,5.00,000.00,024.9,024.3,000.0,033.1,026.6,010.3,0000.0,0001.15,0000.53,0000.33
2024-05-09 07:05:00,SystemResetWarning,0826.7,5.00,000.00,024.9,024.3,000.0,033.1,026.6,010.2,0000.0,0001.10,0000.51,0000.32
2024-05-09 07:06:00,SystemResetWarning,0826.8,4.99,000.00,024.9,024.3,000.0,033.1,026.6,010.1,0000.0,0001.10,0000.52,0000.32
2024-05-09 07:07:00,SystemResetWarning,0826.8,5.00,000.00,024.9,024.3,000.0,033.1,026.6,010.0,0000.0,0001.11,0000.53,0000.32
2024-05-09 07:08:00,SystemResetWarning,0826.7,5.01,000.00,024.9,024.3,000.0,033.1,026.6,010.0,0000.0,0001.16,0000.53,0000.32
2024-05-09 07:09:00,SystemResetWarning,0826.8,5.00,000.00,024.9,024.3,000.0,033.1,026.7,009.9,0000.0,0001.61,0000.52,0000.32
2024-05-09 07:10:00,SystemResetWarning,0826.8,5.01,000.00,024.9,024.3,000.0,033.2,026.7,009.9,0000.0,0002.31,0000.50,0000.31
2024-05-09 07:11:00,SystemResetWarning,0826.8,5.01,000.00,025.0,024.3,000.0,033.2,026.7,009.9,0000.0,0002.35,0000.51,0000.31
2024-05-09 07:12:00,SystemResetWarning,0826.8,5.01,000.00,025.0,024.3,000.0,033.2,026.7,009.9,0000.0,0002.35,0000.51,0000.31
2024-05-09 07:13:00,SystemResetWarning,0826.8,5.01,000.00,025.0,024.3,000.0,033.2,026.7,010.0,0000.0,0002.21,0000.47,0000.31
2024-05-09 07:14:00,SystemResetWarning,0826.8,5.00,000.00,025.0,024.3,000.0,033.2,026.7,010.0,0000.0,0002.10,0000.45,0000.30
2024-05-09 07:15:00,SystemResetWarning,0826.8,5.00,000.00,025.0,024.3,000.0,033.2,026.7,010.0,0000.0,0002.03,0000.45,0000.30
2024-05-09 07:16:00,SystemResetWarning,0826.8,4.99,000.00,025.0,024.3,000.0,033.2,026.7,010.0,0000.0,0002.06,0000.45,0000.30
2024-05-09 07:17:00,SystemResetWarning,0826.9,5.00,000.00,025.0,024.4,000.0,033.2,026.7,010.0,0000.0,0002.10,0000.46,0000.30
2024-05-09 07:18:00,SystemResetWarning,0826.9,5.00,000.00,025.0,024.4,000.0,033.2,026.7,010.0,0000.0,0002.15,0000.47,0000.30
2024-05-09 07:19:00,SystemResetWarning,0826.9,5.00,000.00,025.0,024.4,000.0,033.2,026.7,010.0,0000.0,0002.10,0000.47,0000.30
2024-05-09 07:20:00,SystemResetWarning,0827.0,5.01,000.00,025.0,024.4,000.0,033.3,026.7,010.0,0000.0,0001.93,0000.50,0000.30
2024-05-09 07:21:00,SystemResetWarning,0826.9,5.01,000.00,025.0,024.4,000.0,033.3,026.7,010.0,0000.0,0001.00,0000.52,0000.31
2024-05-09 07:22:00,SystemResetWarning,0826.9,5.00,000.00,025.0,024.4,000.0,033.3,026.7,009.9,0000.0,0001.00,0000.54,0000.31
2024-05-09 07:23:00,SystemResetWarning,0826.9,5.00,000.00,025.0,024.4,000.0,033.3,026.8,009.9,0000.0,0000.98,0000.53,0000.31
2024-05-09 07:24:00,SystemResetWarning,0826.9,5.00,000.00,025.1,024.4,000.0,033.3,026.8,009.9,0000.0,0001.01,0000.54,0000.31
2024-05-09 07:25:00,SystemResetWarning,0826.9,5.00,000.00,025.1,024.4,000.0,033.3,026.8,009.8,0000.0,0000.99,0000.53,0000.31
2024-05-09 07:26:00,SystemResetWarning,0826.9,5.00,000.00,025.1,024.4,000.0,033.3,026.8,009.9,0000.0,0000.97,0000.53,0000.31
2024-05-09 07:27:00,SystemResetWarning,0826.9,5.00,000.00,025.1,024.4,000.0,033.3,026.8,009.8,0000.0,0000.97,0000.53,0000.31
2024-05-09 07:28:00,SystemResetWarning,0826.9,5.00,000.00,025.1,024.4,000.0,033.3,026.8,009.8,0000.0,0000.93,0000.52,0000.32
2024-05-09 07:29:00,SystemResetWarning,0826.9,5.00,000.00,025.1,024.4,000.0,033.3,026.8,009.8,0000.0,0000.92,0000.52,0000.32
2024-05-09 07:30:00,SystemResetWarning,0826.9,5.00,000.00,025.1,024.4,000.0,033.3,026.8,009.8,0000.0,0000.90,0000.51,0000.33
2024-05-09 07:31:00,SystemResetWarning,0826.9,5.00,000.00,025.1,024.4,000.0,033.3,026.8,009.9,0000.0,0000.83,0000.49,0000.33
2024-05-09 07:32:00,SystemResetWarning,0826.9,5.00,000.00,025.1,024.5,000.0,033.3,026.8,009.9,0000.0,0000.75,0000.47,0000.33
2024-05-09 07:33:00,SystemResetWarning,0826.9,5.01,000.00,025.1,024.5,000.0,033.3,026.8,009.9,0000.0,0000.73,0000.45,0000.32
2024-05-09 07:34:00,SystemResetWarning,0827.0,5.00,000.00,025.1,024.5,000.0,033.3,026.8,009.9,0000.0,0000.78,0000.46,0000.32
2024-05-09 07:35:00,SystemResetWarning,0827.0,5.00,000.00,025.1,024.5,000.0,033.3,026.8,009.9,0000.0,0000.77,0000.45,0000.32
2024-05-09 07:36:00,SystemResetWarning,0826.9,5.00,000.00,025.1,024.5,000.0,033.3,026.8,009.9,0000.0,0000.76,0000.44,0000.32
2024-05-09 07:37:00,SystemResetWarning,0827.0,5.00,000.00,025.1,024.5,000.0,033.4,026.8,009.9,0000.0,0000.81,0000.46,0000.32
2024-05-09 07:38:00,SystemResetWarning,0827.0,5.00,000.00,025.1,024.5,000.0,033.4,026.8,010.0,0000.0,0000.81,0000.47,0000.33
2024-05-09 07:39:00,SystemResetWarning,0827.0,5.00,000.00,025.1,024.5,000.0,033.4,026.8,010.0,0000.0,0000.83,0000.48,0000.34
2024-05-09 07:40:00,SystemResetWarning,0827.0,5.00,000.00,025.2,024.5,000.0,033.4,026.9,010.3,0000.0,0000.76,0000.45,0000.33
2024-05-09 07:41:00,SystemResetWarning,0827.0,5.00,000.00,025.2,024.5,000.0,033.4,026.9,010.7,0000.0,0000.78,0000.46,0000.33
2024-05-09 07:42:00,SystemResetWarning,0827.0,5.01,000.00,025.2,024.5,000.0,033.4,026.9,011.0,0000.0,0001.48,0000.48,0000.33
2024-05-09 07:43:00,SystemResetWarning,0827.0,5.00,000.00,025.2,024.5,000.0,033.4,026.9,011.3,0000.0,0001.70,0000.50,0000.35
2024-05-09 07:44:00,SystemResetWarning,0827.1,5.00,000.00,025.2,024.5,000.0,033.4,026.8,011.3,0000.0,0002.17,0000.55,0000.37
2024-05-09 07:45:00,SystemResetWarning,0827.1,5.00,000.00,025.2,024.5,000.0,033.4,026.9,011.0,0000.0,0002.82,0000.57,0000.38
2024-05-09 07:46:00,SystemResetWarning,0827.0,5.00,000.00,025.2,024.5,000.0,033.4,026.9,011.0,0000.0,0002.85,0000.59,0000.39
2024-05-09 07:47:00,SystemResetWarning,0827.1,5.01,000.00,025.2,024.5,000.0,033.4,026.9,011.0,0000.0,0002.86,0000.60,0000.40
2024-05-09 07:48:00,SystemResetWarning,0827.1,5.01,000.00,025.2,024.5,000.0,033.4,026.9,010.9,0000.0,0002.84,0000.60,0000.42
2024-05-09 07:49:00,SystemResetWarning,0827.1,5.00,000.00,025.2,024.5,000.0,033.4,026.9,010.9,0000.0,0002.86,0000.60,0000.42
2024-05-09 07:50:00,SystemResetWarning,0827.1,4.99,000.00,025.2,024.5,000.0,033.4,026.9,010.9,0000.0,0003.99,0000.62,0000.42
2024-05-09 07:51:00,SystemResetWarning,0827.0,5.00,000.00,025.2,024.5,000.0,033.5,026.9,010.8,0000.0,0005.18,0000.68,0000.43
2024-05-09 07:52:00,SystemResetWarning,0827.1,5.00,000.00,025.2,024.5,000.0,033.5,026.9,010.7,0000.0,0005.74,0000.73,0000.44
2024-05-09 07:53:00,SystemResetWarning,0827.1,5.00,000.00,025.2,024.5,000.0,033.5,026.9,010.8,0000.0,0005.20,0000.73,0000.45
2024-05-09 07:54:00,SystemResetWarning,0827.1,5.02,000.00,025.2,024.5,000.0,033.5,026.9,010.7,0000.0,0004.98,0000.72,0000.45
2024-05-09 07:55:00,SystemResetWarning,0827.1,5.00,000.00,025.2,024.5,000.0,033.5,026.9,010.7,0000.0,0004.62,0000.68,0000.44
2024-05-09 07:56:00,SystemResetWarning,0827.1,4.99,000.00,025.2,024.5,000.0,033.5,026.9,010.7,0000.0,0003.86,0000.68,0000.44
2024-05-09 07:57:00,SystemResetWarning,0827.1,4.99,000.00,025.2,024.5,000.0,033.5,026.9,010.7,0000.0,0003.97,0000.71,0000.45
2024-05-09 07:58:00,SystemResetWarning,0827.0,5.00,000.00,025.2,024.6,000.0,033.5,026.9,010.7,0000.0,0004.16,0000.74,0000.45
2024-05-09 07:59:00,SystemResetWarning,0827.1,5.00,000.00,025.2,024.6,000.0,033.5,026.9,010.7,0000.0,0004.17,0000.74,0000.45
